Flag for USA

Past Weather in 55°20'16.9"N, 131°38'36.9"W, USA — Yesterday and Last 2 Weeks

Currently: 52 °F. Fog. (Weather station: Ketchikan International Airport, USA). See more current weather

Past Weather in 55°20'16.9"N, 131°38'36.9"W — Graph

°F

55°20'16.9"N, 131°38'36.9"W Temperature Yesterday

Maximum temperature yesterday: 59 °F (at 4:53 pm)
Minimum temperature yesterday: 55 °F (at 12:53 am)
Average temperature yesterday: 56 °F

High & Low Weather Summary for the Past Weeks

 TemperatureHumidityPressure
High66 °F (Sep 21, 1:53 pm)100% (Sep 26, 3:31 am)30.37 "Hg (Sep 26, 3:31 am)
Low45 °F (Oct 2, 12:53 am)60% (Sep 22, 2:53 pm)29.78 "Hg (Sep 22, 6:53 am)
Average55 °F93%30.03 "Hg
* Reported Sep 21 7:53 am — Oct 6 7:53 am, 55°20'16.9"N, 131°38'36.9"W. Weather by CustomWeather, © 2022

Note: Actual official high and low records may vary slightly from our data, if they occured in-between our weather recording intervals... More about our weather records

55°20'16.9"N, 131°38'36.9"W Weather History for the Previous 24 Hours

Scroll right to see more
 ConditionsComfort  
Time TempWeatherWind HumidityBarometerVisibility
7:53 am
Thu, Oct 6
52 °FFog.12 mph100%30.34 "Hg0 mi
6:53 am52 °FFog.5 mph100%30.34 "Hg0 mi
6:11 am50 °FFog.No wind100%30.34 "Hg0 mi
5:18 am52 °FFog.No wind100%30.34 "Hg0 mi
5:06 am52 °FFog.5 mph97%30.34 "Hg1 mi
4:38 am52 °FFog.7 mph97%30.34 "Hg2 mi
4:13 am51 °FFog.6 mph100%30.35 "Hg2 mi
2:53 am52 °FFog.No wind97%30.37 "Hg0 mi
2:17 am52 °FFog.No wind100%30.37 "Hg2 mi
12:53 am55 °FFog.5 mph96%30.37 "Hg6 mi
12:33 am56 °FPassing clouds.5 mph97%30.37 "Hg7 mi
11:53 pm
Wed, Oct 5
56 °FPassing clouds.3 mph97%30.37 "Hg10 mi
11:23 pm56 °FMostly cloudy.3 mph97%30.36 "Hg10 mi
10:53 pm56 °FOvercast.No wind93%30.36 "Hg10 mi
9:53 pm56 °FOvercast.No wind97%30.36 "Hg10 mi
8:53 pm58 °FOvercast.No wind93%30.35 "Hg10 mi
7:53 pm58 °FMostly cloudy.No wind93%30.34 "Hg10 mi
6:53 pm58 °FMostly cloudy.5 mph97%30.32 "Hg10 mi
5:53 pm59 °FMostly cloudy.6 mph93%30.31 "Hg10 mi
4:53 pm59 °FCloudy.6 mph93%30.30 "Hg10 mi
2:53 pm58 °FLight rain. Cloudy.10 mph97%30.28 "Hg10 mi
1:53 pm58 °FLight rain. Fog.14 mph93%30.26 "Hg4 mi
12:53 pm57 °FFog.15 mph96%30.24 "Hg5 mi
11:53 am57 °FLight rain. Fog.14 mph96%30.21 "Hg3 mi
10:53 am57 °FLight rain. Fog.12 mph96%30.16 "Hg2 mi
9:53 am57 °FLight rain. Fog.12 mph96%30.11 "Hg2 mi
Weather by CustomWeather, © 2022

See weather overview